| time (UTC) | temp F | wind direction | speed knots | gust knots | rain 1hr in | rain 24hr in | rain mn in | humidity % | barometer mb |
| 20260508114802 | 56 | 230 | 5.2 | 8.7 | 0.00 | 0.00 | 0.00 | 26 | 1006.7 |
| 20260508113745 | 56 | 198 | 4.3 | 8.7 | 0.00 | 0.00 | 0.00 | 26 | 1006.7 |
| 20260508112807 | 56 | 211 | 5.2 | 8.7 | 0.00 | 0.00 | 0.00 | 26 | 1006.6 |
| 20260508111820 | 55 | 212 | 4.3 | 7.8 | 0.00 | 0.00 | 0.00 | 26 | 1006.6 |
| 20260508110754 | 55 | 219 | 4.3 | 7.8 | 0.00 | 0.00 | 0.00 | 27 | 1006.7 |
| 20260508104636 | 55 | 227 | 3.5 | 7.8 | 0.00 | 0.00 | 0.00 | 27 | 1006.6 |
| 20260508103634 | 56 | 228 | 4.3 | 7.8 | 0.00 | 0.00 | 0.00 | 26 | 1006.6 |
| 20260508102635 | 56 | 231 | 4.3 | 7.8 | 0.00 | 0.00 | 0.00 | 26 | 1006.7 |
| 20260508101621 | 57 | 231 | 4.3 | 7.8 | 0.00 | 0.00 | 0.00 | 25 | 1006.6 |
| 20260508100604 | 57 | 226 | 4.3 | 7.0 | 0.00 | 0.00 | 0.00 | 25 | 1006.5 |
| 20260508095540 | 57 | 227 | 4.3 | 7.0 | 0.00 | 0.00 | 0.00 | 25 | 1006.4 |
| 20260508094558 | 58 | 233 | 3.5 | 5.2 | 0.00 | 0.00 | 0.00 | 23 | 1006.6 |
| 20260508093556 | 58 | 256 | 3.5 | 5.2 | 0.00 | 0.00 | 0.00 | 23 | 1006.6 |
| 20260508092555 | 57 | 254 | 3.5 | 5.2 | 0.00 | 0.00 | 0.00 | 24 | 1006.8 |
| 20260508091520 | 58 | 246 | 4.3 | 7.0 | 0.00 | 0.00 | 0.00 | 23 | 1006.8 |
| 20260508090458 | 58 | 255 | 4.3 | 7.0 | 0.00 | 0.00 | 0.00 | 23 | 1006.9 |
| 20260508085442 | 58 | 240 | 4.3 | 7.8 | 0.00 | 0.00 | 0.00 | 24 | 1007.1 |
| 20260508083256 | 57 | 248 | 4.3 | 7.0 | 0.00 | 0.00 | 0.00 | 24 | 1007.4 |
| 20260508082247 | 57 | 238 | 4.3 | 7.8 | 0.00 | 0.00 | 0.00 | 24 | 1007.6 |
| 20260508081311 | 57 | 222 | 4.3 | 7.8 | 0.00 | 0.00 | 0.00 | 24 | 1007.6 |
| 20260508080317 | 57 | 223 | 3.5 | 6.1 | 0.00 | 0.00 | 0.00 | 24 | 1008.0 |
| 20260508075254 | 58 | 216 | 2.6 | 6.1 | 0.00 | 0.00 | 0.00 | 23 | 1008.1 |
| 20260508074248 | 58 | 225 | 3.5 | 6.1 | 0.00 | 0.00 | 0.00 | 22 | 1008.1 |
| 20260508073242 | 58 | 221 | 3.5 | 5.2 | 0.00 | 0.00 | 0.00 | 22 | 1008.1 |
| 20260508072245 | 58 | 237 | 2.6 | 5.2 | 0.00 | 0.00 | 0.00 | 22 | 1008.2 |
| 20260508071306 | 58 | 221 | 1.7 | 5.2 | 0.00 | 0.00 | 0.00 | 22 | 1008.3 |
| 20260508065207 | 60 | 226 | 3.5 | 7.0 | 0.00 | 0.00 | 0.00 | 20 | 1008.4 |
| 20260508064133 | 61 | 234 | 4.3 | 7.8 | 0.00 | 0.00 | 0.00 | 20 | 1008.4 |
| 20260508061918 | 60 | 251 | 4.3 | 7.0 | 0.00 | 0.00 | 0.00 | 21 | 1008.3 |
| 20260508060900 | 60 | 231 | 2.6 | 4.3 | 0.00 | 0.00 | 0.00 | 21 | 1008.2 |
| 20260508055916 | 60 | 240 | 2.6 | 4.3 | 0.00 | 0.00 | 0.00 | 21 | 1008.3 |
| 20260508054843 | 60 | 244 | 2.6 | 7.0 | 0.00 | 0.00 | 0.00 | 21 | 1008.3 |
| 20260508053835 | 61 | 230 | 3.5 | 7.0 | 0.00 | 0.00 | 0.00 | 21 | 1008.3 |
| 20260508052845 | 61 | 224 | 3.5 | 6.1 | 0.00 | 0.00 | 0.00 | 21 | 1008.2 |
| 20260508051819 | 59 | 231 | 3.5 | 4.3 | 0.00 | 0.00 | 0.00 | 22 | 1008.3 |
| 20260508050759 | 60 | 242 | 2.6 | 2.6 | 0.00 | 0.00 | 0.00 | 22 | 1008.2 |
| 20260508045749 | 60 | 234 | 2.6 | 4.3 | 0.00 | 0.00 | 0.00 | 22 | 1008.3 |
| 20260508044809 | 61 | 232 | 2.6 | 4.3 | 0.00 | 0.00 | 0.00 | 21 | 1008.2 |
| 20260508043802 | 61 | 229 | 2.6 | 5.2 | 0.00 | 0.00 | 0.00 | 21 | 1008.3 |
| 20260508042732 | 61 | 229 | 3.5 | 5.2 | 0.00 | 0.00 | 0.00 | 21 | 1008.2 |
| 20260508041717 | 61 | 233 | 3.5 | 5.2 | 0.00 | 0.00 | 0.00 | 21 | 1008.1 |
| 20260508040647 | 61 | 232 | 3.5 | 5.2 | 0.00 | 0.00 | 0.00 | 22 | 1008.1 |
| 20260508035616 | 60 | 234 | 3.5 | 4.3 | 0.00 | 0.00 | 0.00 | 22 | 1008.0 |
| 20260508034607 | 60 | 236 | 1.7 | 3.5 | 0.00 | 0.00 | 0.00 | 22 | 1007.8 |
| 20260508033601 | 60 | 227 | 1.7 | 3.5 | 0.00 | 0.00 | 0.00 | 22 | 1007.6 |
| 20260508032602 | 60 | 234 | 2.6 | 3.5 | 0.00 | 0.00 | 0.00 | 22 | 1007.5 |
| 20260508031558 | 61 | 252 | 1.7 | 2.6 | 0.00 | 0.00 | 0.00 | 22 | 1007.3 |
| 20260508030610 | 61 | 211 | 0.9 | 2.6 | 0.00 | 0.00 | 0.00 | 21 | 1007.1 |
| 20260508023304 | 63 | 179 | 0.9 | 2.6 | 0.00 | 0.00 | 0.00 | 21 | 1006.7 |
| 20260508022249 | 64 | 134 | 0.0 | 2.6 | 0.00 | 0.00 | 0.00 | 20 | 1006.7 |
| 20260508021303 | 65 | 117 | 0.9 | 2.6 | 0.00 | 0.00 | 0.00 | 20 | 1006.6 |
| 20260508020239 | 66 | 150 | 0.0 | 2.6 | 0.00 | 0.00 | 0.00 | 19 | 1006.4 |
| 20260508015306 | 67 | 114 | 0.9 | 2.6 | 0.00 | 0.00 | 0.00 | 18 | 1006.3 |
| 20260508014250 | 68 | 104 | 1.7 | 5.2 | 0.00 | 0.00 | 0.00 | 18 | 1006.2 |
| 20260508012110 | 70 | 56 | 2.6 | 7.0 | 0.00 | 0.00 | 0.00 | 17 | 1006.1 |
| 20260508011115 | 71 | 69 | 1.7 | 4.3 | 0.00 | 0.00 | 0.00 | 17 | 1006.2 |
| 20260508010112 | 72 | 52 | 2.6 | 7.8 | 0.00 | 0.00 | 0.00 | 17 | 1006.2 |
| 20260508005057 | 72 | 96 | 3.5 | 7.8 | 0.00 | 0.00 | 0.00 | 16 | 1006.2 |
| 20260508001834 | 74 | 174 | 2.6 | 9.6 | 0.00 | 0.00 | 0.00 | 15 | 1006.2 |
| 20260508000833 | 73 | 150 | 3.5 | 9.6 | 0.00 | 0.00 | 0.00 | 16 | 1006.2 |
| 20260507235818 | 74 | 180 | 3.5 | 10.4 | 0.00 | 0.00 | 0.00 | 16 | 1006.2 |
| 20260507234815 | 74 | 207 | 5.2 | 10.4 | 0.00 | 0.00 | 0.00 | 16 | 1006.2 |
| 20260507233828 | 74 | 111 | 4.3 | 10.4 | 0.00 | 0.00 | 0.00 | 15 | 1006.3 |
| 20260507232852 | 75 | 228 | 7.0 | 13.9 | 0.00 | 0.00 | 0.00 | 16 | 1006.3 |
| 20260507231840 | 74 | 150 | 6.1 | 13.9 | 0.00 | 0.00 | 0.00 | 16 | 1006.3 |
| 20260507225709 | 74 | 90 | 3.5 | 9.6 | 0.00 | 0.00 | 0.00 | 16 | 1006.4 |
| 20260507223619 | 73 | 211 | 6.1 | 13.0 | 0.00 | 0.00 | 0.00 | 16 | 1006.4 |
| 20260507221512 | 74 | 188 | 3.5 | 7.8 | 0.00 | 0.00 | 0.00 | 16 | 1006.7 |
| 20260507215346 | 73 | 218 | 7.0 | 15.6 | 0.00 | 0.00 | 0.00 | 16 | 1006.7 |
| 20260507214320 | 75 | 163 | 6.1 | 13.0 | 0.00 | 0.00 | 0.00 | 16 | 1007.0 |
| 20260507213248 | 76 | 192 | 5.2 | 12.2 | 0.00 | 0.00 | 0.00 | 15 | 1007.1 |
| 20260507212234 | 75 | 146 | 6.1 | 12.2 | 0.00 | 0.00 | 0.00 | 16 | 1007.5 |
| 20260507211247 | 74 | 136 | 2.6 | 9.6 | 0.00 | 0.00 | 0.00 | 15 | 1007.5 |
| 20260507210236 | 70 | 123 | 4.3 | 11.3 | 0.00 | 0.00 | 0.00 | 17 | 1007.8 |
| 20260507204041 | 76 | 128 | 6.1 | 13.9 | 0.00 | 0.00 | 0.00 | 14 | 1008.0 |
| 20260507203009 | 75 | 64 | 5.2 | 13.9 | 0.00 | 0.00 | 0.00 | 15 | 1008.1 |
| 20260507200918 | 74 | 19 | 4.3 | 11.3 | 0.00 | 0.00 | 0.00 | 16 | 1008.5 |
| 20260507195922 | 75 | 81 | 4.3 | 11.3 | 0.00 | 0.00 | 0.00 | 16 | 1008.6 |
| 20260507194934 | 74 | 55 | 5.2 | 13.0 | 0.00 | 0.00 | 0.00 | 16 | 1008.8 |
| 20260507193949 | 73 | 59 | 6.1 | 13.0 | 0.00 | 0.00 | 0.00 | 16 | 1009.0 |
| 20260507192939 | 73 | 61 | 2.6 | 11.3 | 0.00 | 0.00 | 0.00 | 17 | 1009.1 |
| 20260507192002 | 72 | 125 | 3.5 | 9.6 | 0.00 | 0.00 | 0.00 | 15 | 1009.2 |
| 20260507190932 | 73 | 67 | 2.6 | 8.7 | 0.00 | 0.00 | 0.00 | 16 | 1009.4 |
| 20260507185916 | 73 | 285 | 1.7 | 7.8 | 0.00 | 0.00 | 0.00 | 15 | 1009.6 |
| 20260507184932 | 73 | 32 | 5.2 | 11.3 | 0.00 | 0.00 | 0.00 | 14 | 1009.8 |
| 20260507183924 | 72 | 43 | 4.3 | 11.3 | 0.00 | 0.00 | 0.00 | 15 | 1009.9 |
| 20260507182944 | 72 | 22 | 4.3 | 10.4 | 0.00 | 0.00 | 0.00 | 15 | 1010.0 |
| 20260507181953 | 72 | 359 | 4.3 | 11.3 | 0.00 | 0.00 | 0.00 | 16 | 1010.3 |
| 20260507175824 | 71 | 313 | 4.3 | 13.9 | 0.00 | 0.00 | 0.00 | 17 | 1010.5 |
| 20260507174805 | 70 | 346 | 3.5 | 13.9 | 0.00 | 0.00 | 0.00 | 18 | 1010.7 |
| 20260507173825 | 69 | 166 | 3.5 | 7.8 | 0.00 | 0.00 | 0.00 | 19 | 1010.9 |
| 20260507172756 | 70 | 92 | 1.7 | 5.2 | 0.00 | 0.00 | 0.00 | 19 | 1011.0 |
| 20260507165427 | 68 | 59 | 2.6 | 9.6 | 0.00 | 0.00 | 0.00 | 21 | 1011.4 |
| 20260507164435 | 69 | 56 | 1.7 | 7.8 | 0.00 | 0.00 | 0.00 | 20 | 1011.5 |
| 20260507163424 | 67 | 36 | 3.5 | 7.8 | 0.00 | 0.00 | 0.00 | 22 | 1011.6 |
| 20260507162428 | 66 | 48 | 4.3 | 8.7 | 0.00 | 0.00 | 0.00 | 24 | 1011.7 |
| 20260507155141 | 64 | 53 | 5.2 | 9.6 | 0.00 | 0.00 | 0.00 | 25 | 1012.0 |
| 20260507154202 | 65 | 29 | 4.3 | 9.6 | 0.00 | 0.00 | 0.00 | 25 | 1012.0 |
| 20260507152052 | 65 | 49 | 3.5 | 9.6 | 0.00 | 0.00 | 0.00 | 26 | 1012.1 |
| 20260507151116 | 65 | 19 | 3.5 | 9.6 | 0.00 | 0.00 | 0.00 | 25 | 1012.2 |
| 20260507150114 | 65 | 60 | 2.6 | 6.1 | 0.00 | 0.00 | 0.00 | 26 | 1012.3 |
| 20260507145053 | 63 | 72 | 3.5 | 7.0 | 0.00 | 0.00 | 0.00 | 27 | 1012.3 |
| 20260507143020 | 64 | 14 | 2.6 | 5.2 | 0.00 | 0.00 | 0.00 | 27 | 1012.3 |
| 20260507142003 | 63 | 38 | 2.6 | 5.2 | 0.00 | 0.00 | 0.00 | 27 | 1012.2 |
| 20260507141019 | 63 | 353 | 1.7 | 4.3 | 0.00 | 0.00 | 0.00 | 27 | 1012.3 |
| 20260507134924 | 57 | 247 | 0.0 | 0.0 | 0.00 | 0.00 | 0.00 | 33 | 1012.6 |
| 20260507133934 | 55 | 246 | 0.0 | 0.9 | 0.00 | 0.00 | 0.00 | 32 | 1012.5 |
| 20260507132948 | 54 | 248 | 0.0 | 0.9 | 0.00 | 0.00 | 0.00 | 32 | 1012.4 |
| 20260507130820 | 51 | 132 | 0.0 | 0.9 | 0.00 | 0.00 | 0.00 | 34 | 1012.3 |
| 20260507124645 | 50 | 132 | 0.0 | 0.9 | 0.00 | 0.00 | 0.00 | 36 | 1012.0 |
| 20260507123708 | 50 | 132 | 0.0 | 0.0 | 0.00 | 0.00 | 0.00 | 37 | 1012.0 |
| 20260507122633 | 51 | 132 | 0.9 | 1.7 | 0.00 | 0.00 | 0.00 | 37 | 1012.0 |
| 20260507121632 | 52 | 132 | 0.9 | 2.6 | 0.00 | 0.00 | 0.00 | 38 | 1011.9 |
| 20260507120634 | 53 | 270 | 0.9 | 4.3 | 0.00 | 0.00 | 0.00 | 38 | 1011.7 |